Overview Statistics Trail Chart Weather Telemetry Raw packets
 

This is the latest recevied weather packets stored in our database for station/object N5TDX. If no packets are shown the sender has not sent any weather packets the latest 10 day(s).

<< 2 3 4 5 6 7 8 >>
Time Temp. Humidity Pressure Rain* Wind** Luminosity Snow
1788641502 37.78° C 34% 1008.6 hPa 0 mm - - -
1788641201 37.78° C 35% 1008.6 hPa 0 mm - - -
1788640914 36.67° C 36% 1008.8 hPa 0 mm - - -
1788640597 36.11° C 37% 1009 hPa 0 mm - - -
1788640292 36.67° C 36% 1009.1 hPa 0 mm - - -
1788639988 37.22° C 35% 1009.1 hPa 0 mm - - -
1788639683 37.78° C 35% 1009.2 hPa 0 mm - - -
1788639379 38.33° C 34% 1009.1 hPa 0 mm - - -
1788639078 38.33° C 34% 1009.1 hPa 0 mm - - -
1788638774 38.33° C 33% 1009.1 hPa 0 mm - - -
1788638469 38.33° C 33% 1009.1 hPa 0 mm - - -
1788638167 38.33° C 33% 1009.5 hPa 0 mm - - -
1788637863 37.78° C 34% 1009.5 hPa 0 mm - - -
1788637563 37.22° C 35% 1009.5 hPa 0 mm - - -
1788637262 37.22° C 37% 1009.7 hPa 0 mm - - -
1788636986 36.11° C 36% 1009.8 hPa 0 mm - - -
1788636652 36.67° C 37% 1009.7 hPa 0 mm - - -
1788636348 37.22° C 35% 1010 hPa 0 mm - - -
1788636044 37.78° C 35% 1010 hPa 0 mm - - -
1788635742 37.78° C 35% 1010.2 hPa 0 mm - - -
1788635442 38.89° C 33% 1010 hPa 0 mm - - -
1788635142 38.89° C 33% 1010.3 hPa 0 mm - - -
1788634840 38.33° C 35% 1010.3 hPa 0 mm - - -
1788634539 38.33° C 35% 1010.6 hPa 0 mm - - -
1788634239 38.33° C 35% 1010.6 hPa 0 mm - - -

* Rain latest hour (hover to see other rain measurements)
** Current wind speed in m/s (hover to see current wind gust speed)